Location: Lafig�re
(44.4503°N, 4.0357°E)
Time: 04:30:00
(UTC+00:00)

Vanguard 1 Rocket - Visible Passes

Search period start: 28 January 2021 00:00
Search period end: 07 February 2021 00:00
Orbit: 655 x 4222 km, 34.3° (Epoch: 27 January)

Date Brightness Start Highest point End Pass type
(mag) Time Alt. Az. Time Alt. Az. Time Alt. Az.
31 Jan 11.3 06:34:06 10° S 06:39:56 14° SSE 06:44:27 10° SE visible
02 Feb 11.1 06:33:36 10° SSW 06:42:54 20° SSE 06:49:15 10° ESE visible
03 Feb 11.4 05:22:51 10° S 05:30:51 15° SSE 05:36:53 10° ESE visible
05 Feb 11.1 05:21:57 10° SSW 05:33:44 21° SSE 05:41:42 10° ESE visible
06 Feb 11.5 04:11:35 10° S 04:21:15 16° SSE 04:28:39 10° ESE visible
